Create Custom Reports and Graphics: Custom Report

Map - Northern Napa County

Map

15 Minute Data

Map - Southern Napa County

Map

15 Minute Data

Northeast Napa County

10 Stations

15 Minute Data | America/Los_Angeles
as of 5/8/26 12:33 PM PDT
Station Date Time Temp (°F) RH (%) Dew Pt (°F) Wind Spd (mph) Wind Dir (°) Wind Gust (mph) Latest Rain (In) Daily Rain (In) Daily Max Temp (°F) Daily Min Temp (°F)
Dollarhide 18A Remote 5/8/26 1230 77.9   0.5 59   1 62.6   1.1 - - - - - 78.7   1.0 43.4   1.3
Dollarhide 1AS Remote 5/8/26 1230 78.5   0.8 57   1 62.2   1.3 3.6   0.0 SSW | 193 9.6   2.3 - - 79.4   0.8 46.1   1.0
Angwin 5/8/26 1230 66.8   1.5 65   2 54.7   2.2 4.5   0.6 SSE | 157 9.2   1.8 0.00 0.00 69.0   0.4 56.1   1.2
Lower Angwin (Pioneer) 5/8/26 1230 67.2   4.5 - - 3.9   1.2 SW | 228 8.2   0.7 - - 71.4   1.5 42.8   2.7
Lower Chiles Valley (Brown) 5/8/26 1230 68.5   0.4 63   6 55.4   2.9 4.5   2.1 SSW | 196 9.1   1.0 0.00 0.01 70.0   0.4 50.0   0.5
Deer Park 5/8/26 1230 71.2   0.6 59   5 56.4   1.8 3.8   0.6 SW | 218 9.1   2.2 0.00 0.00 71.4   0.6 50.3   0.6
Moss Creek Vineyard/Reservior 5/8/26 1230 75.9   0.6 54   3 58.1   0.8 - - - 0.00 0.00 76.9   0.2 50.6   0.4
Montesol 5/8/26 1230 73.1   0.3 - - - - - 0.00 0.00 77.3   3.2 43.5   4.3
Dollarhide Base 5/8/26 1200 77.6   0.6 55   0 60.4   0.6 2.2   3.3 S | 176 5.6   5.0 0.00 0.00 78.3   0.6 49.3   0.1
Pope Valley (Weeks Lake) 5/8/26 1230 78.0   1.1 51   1 58.4   0.2 2.3   0.2 SE | 132 7.5   1.1 0.00 0.00 78.7   1.0 46.0   0.1
Max     78.5 65 62.6 4.5 - 9.6 0.00 0.01 79.4 56.1
Avg     73.5 58 58.5 3.5 - 8.3 0.00 - - -
Min     66.8 51 54.7 2.2 - 5.6 0.00 0.00 69.0 42.8

Northern & Central Napa County

32 Stations

15 Minute Data | America/Los_Angeles
as of 5/8/26 12:33 PM PDT
Station Date Time Temp (°F) RH (%) Dew Pt (°F) Wind Spd (mph) Wind Dir (°) Wind Gust (mph) Latest Rain (In) Daily Rain (In) Daily Max Temp (°F) Daily Min Temp (°F)
Calistoga-North 5/8/26 1230 78.2   1.4 50   7 57.8   2.2 - - - 0.00 0.00 78.2   0.5 52.0   0.3
Stags Leap Dist (Chimney Rock) 5/8/26 1230 64.2   0.7 75   2 56.1   1.5 3.9   0.5 SE | 137 6.9   0.6 0.00 0.00 64.5   1.5 52.8   0.4
Diamond Mtn (McEachran) 5/8/26 1230 69.9   0.9 57   5 54.1   3.1 - - - - - 71.4   0.0 50.7   0.3
Diamond Mtn (Schramsberg) 5/8/26 1230 70.7   2.3 59   7 55.6   0.9 - - - 0.00 0.00 71.5   2.3 49.3   0.0
Stags Leap Dist (Silverado Vineyards) 5/8/26 1230 64.0   0.9 67   2 53.0   1.9 2.9   1.4 S | 184 7.0   1.7 0.00 0.00 65.2   0.5 52.1   0.2
Oak Knoll-East (Ranch 53) 5/8/26 1230 64.3   0.7 66   3 52.8   1.9 2.6   0.6 SE | 142 6.7   1.2 0.00 0.00 65.0   0.6 52.6   0.1
Rutherford-North (Mee Ln) 5/8/26 1230 68.5   0.7 63   5 55.3   1.4 3.2   0.6 SSW | 212 6.4   2.0 0.00 0.00 69.2   1.0 49.4   0.9
Frisinger Napa-NW 5/8/26 1230 65.7   1.2 70   1 55.7   0.7 3.0   0.6 E | 84 7.5   0.1 0.00 0.00 65.7   1.2 52.8   0.2
Napa-North (Ranch 29) 5/8/26 1230 63.3   0.4 69   4 53.1   2.0 3.2   0.5 SSW | 205 7.0   0.7 0.00 0.00 63.8   0.4 51.8   0.1
St. Helena (NVV Office) 5/8/26 1230 71.0   1.1 - - 2.0   0.1 ENE | 66 5.0   0.8 0.00 0.00 71.9   1.6 53.1   0.1
Crossroads Ranch 5/8/26 1230 66.4   0.6 69   3 55.9   1.6 3.8   1.2 S | 172 8.1   1.5 0.00 0.00 66.5   0.5 53.0   0.1
Oakville 5/8/26 1230 65.7   0.1 66   4 54.1   1.4 3.1   2.1 SE | 136 8.1   2.7 0.00 0.00 66.4   0.0 52.6   0.1
OV561-East 5/8/26 1230 65.8   0.6 - - - - - - - 66.5   0.5 53.4   0.2
OV518-West 5/8/26 1230 66.5   0.5 - - - - - - - 67.1   0.8 53.0   0.2
Napa-NW (Ranch 54) 5/8/26 1230 67.2   2.2 61   2 53.6   2.8 1.0   0.2 ENE | 65 4.3   0.1 0.00 0.00 67.8   2.3 52.8   0.1
Calistoga (Ranch 78) 5/8/26 1230 74.3   0.4 52   6 55.3   2.5 5.0   3.2 NW | 318 10.4   5.7 0.00 0.00 74.3   0.8 52.2   0.5
Yountville-SE (Ranch 85) 5/8/26 1230 63.6   0.6 70   3 53.7   1.7 2.7   1.4 S | 171 6.4   1.9 0.00 0.00 64.4   0.9 52.8   0.1
Yountville-South (Ranch 87) 5/8/26 1230 64.8   1.1 68   2 54.1   1.9 2.9   0.6 SE | 138 7.8   0.2 0.00 0.00 65.3   1.0 52.7   0.1
Rutherford Hill Estate 5/8/26 1230 66.6   0.2 67   4 55.1   1.6 2.8   0.4 SSW | 198 6.6   0.2 0.00 0.00 67.9   0.7 51.4   0.4
Rutherford (STS) 5/8/26 1230 69.4   0.1 69   4 58.7   1.8 2.0   1.2 SE | 133 6.1   1.8 0.00 0.00 70.2   0.5 52.8   0.1
Borreo (Soda Canyon) 5/8/26 1230 62.9   0.3 72   1 53.6   0.6 1.7   1.1 SSE | 167 5.1   1.1 0.00 0.00 63.7   0.2 50.3   0.7
Oakville-NE (Ranch 88) 5/8/26 1230 67.5   0.4 62   3 53.9   1.8 2.6   0.8 S | 185 6.7   0.5 0.00 0.00 68.0   0.7 52.9   0.2
Soda Canyon 5/8/26 1230 62.1   0.9 78   0 55.1   1.0 2.4   0.6 SE | 124 6.9   1.3 0.00 0.00 63.0   0.4 52.3   5.0
Silver Oak OV 5/8/26 1230 66.0   0.2 71   2 56.2   0.7 3.6   2.5 SSE | 160 7.5   2.3 0.00 0.00 66.3   0.3 52.9   0.1
Tiara Fria (East St. Helena) 5/8/26 1230 68.1   1.0 62   6 54.5   1.6 3.5   0.8 SSE | 153 6.6   0.2 0.00 0.00 68.6   0.8 53.0   0.3
To Kalon Remote (TKKE) 5/8/26 1230 67.9   0.3 - - - - - - - 68.6   0.4 53.0   0.2
To Kalon 5/8/26 1230 65.5   0.5 69   3 55.0   1.6 3.1   1.0 SE | 141 7.9   1.4 0.00 0.00 66.0   1.2 52.6   0.5
To Kalon Remote (TKN5) 5/8/26 1230 68.0   0.4 - - - - - - - 69.0   0.1 53.1   0.3
St. Helena-North 5/8/26 1230 73.0   3.9 50   10 53.3   1.5 2.5   1.0 NNE | 27 7.7   0.2 0.00 0.00 73.8   4.3 52.8   0.2
Twomey Calistoga 5/8/26 1230 74.1   0.2 53   6 56.1   2.6 4.2   1.5 NW | 321 10.8   4.6 0.00 0.00 74.4   0.3 50.9   1.2
Wappo Hill Floor 5/8/26 1230 65.7   0.1 67   2 54.5   0.6 3.1   1.1 SE | 139 7.1   1.9 0.00 0.00 65.7   0.0 51.4   0.1
Yountville (Ranch 67) 5/8/26 1230 65.8   0.5 64   0 53.4   0.4 2.9   2.1 SSE | 149 7.1   1.0 0.00 0.00 65.8   0.5 52.1   0.2
Max     78.2 78 58.7 5.0 - 10.8 0.00 0.00 78.2 53.4
Avg     67.4 65 54.8 3.0 - 7.1 0.00 - - -
Min     62.1 50 52.8 1.0 - 4.3 0.00 0.00 63.0 49.3

Southern Napa County

23 Stations

15 Minute Data | America/Los_Angeles
as of 5/8/26 12:33 PM PDT
Station Date Time Temp (°F) RH (%) Dew Pt (°F) Wind Spd (mph) Wind Dir (°) Wind Gust (mph) Latest Rain (In) Daily Rain (In) Daily Max Temp (°F) Daily Min Temp (°F)
Carneros (Milton Rd) 5/8/26 1230 68.0   3.8 62   10 54.6   0.5 - - - 0.00 0.00 68.4   3.6 51.5   0.1
Carneros Lower (Ranch 81) 5/8/26 1230 69.4   2.3 64   4 56.8   0.7 1.2   0.5 SW | 220 7.0   1.9 0.00 0.00 69.4   2.3 51.3   0.2
Carneros Upper (Ranch 81) 5/8/26 1230 66.4   2.3 65   7 54.4   0.4 6.5   2.1 SW | 230 10.7   1.8 - - 66.7   2.7 49.9   1.0
Carneros (Mitsuko) 5/8/26 1230 67.1   1.6 - - - - - - - 68.0   2.1 51.0   0.9
Mount George (Napa East) 5/8/26 1230 62.6   1.6 75   2 54.6   0.6 2.6   0.4 ENE | 74 6.0   0.4 0.00 0.00 62.7   1.9 53.7   1.6
Napa-East (Palmaz 300') 5/8/26 1230 63.3   2.3 70   2 53.4   1.6 1.7   0.2 SW | 232 5.0   1.1 0.00 0.00 64.9   1.7 51.2   0.2
Napa-East (Palmaz 1200') 5/8/26 1230 56.4   4.5 50   31 38.0   16.9 3.8   0.3 NW | 309 6.9   0.2 - - 57.1   4.4 48.2   0.3
Napa-East (Palmaz 1400') 5/8/26 1230 61.1   4.3 83   10 55.9   0.7 4.4   0.9 SW | 225 9.2   2.0 0.00 0.00 61.4   4.6 47.7   0.1
Dealy Lane (Ranch 80) 5/8/26 1230 68.8   1.8 59   7 54.0   1.3 3.4   0.3 SSW | 212 9.7   2.1 0.00 0.00 68.8   1.5 50.8   0.9
Suscol Mtn (Ranch 93) 5/8/26 1230 65.1   0.7 76   10 57.3   2.6 6.9   1.6 NW | 308 12.1   2.8 0.00 0.01 65.3   0.4 47.8   1.1
Carneros (Saintsbury) 5/8/26 1230 67.6   2.0 63   5 54.4   0.3 5.8   2.3 SW | 224 11.1   3.6 0.00 0.00 68.5   2.2 48.3   1.0
Sugarloaf West 5/8/26 1230 64.8   1.5 73   4 55.8   0.2 1.9   1.2 WSW | 237 5.8   2.0 0.00 0.00 64.8   1.5 51.3   0.9
Suscol Upper (Ranch 92) 5/8/26 1230 61.8   0.1 73   4 52.9   1.5 1.8   0.0 W | 261 7.8   0.1 0.00 0.00 63.0   0.6 48.3   1.2
Stanly (Ranch 45) 5/8/26 1230 66.8   2.2 62   8 53.4   1.1 4.6   0.3 WSW | 255 11.9   3.8 0.00 0.00 67.2   2.3 49.4   1.0
Suscol Lower (Ranch 35) 5/8/26 1230 66.3   1.0 65   2 54.4   0.2 3.5   0.2 NW | 316 10.7   2.8 0.00 0.00 66.3   0.7 50.5   1.1
Napa-South (Toyon Farms) 5/8/26 1230 66.5   1.2 71   4 56.9   0.5 4.0   0.1 SSW | 208 7.8   0.7 0.00 0.00 67.3   1.3 50.8   0.4
Toyon Remote 1 5/8/26 1230 70.4   2.8 - - - - - - - 71.8   3.0 51.2   5.4
Toyon Remote 2 5/8/26 1230 66.7   0.5 - - - - - - - 68.7   1.7 51.4   1.4
Toyon Remote 3 5/8/26 1230 67.7   0.9 - - - - - - - 68.5   0.7 51.5   1.8
Napa-West Lower (Truchard) 5/8/26 1230 71.3   3.0 56   7 54.8   0.3 - - - - - 72.4   3.0 50.1   3.6
Napa-West Upper (Truchard) 5/8/26 1230 66.0   0.1 67   2 54.6   0.9 2.0   3.1 WNW | 282 4.9   5.1 0.00 0.00 67.0   0.2 49.1   0.6
Mt. Veeder 5/8/26 1230 65.4   1.8 69   0 55.0   1.6 3.7   0.2 SE | 133 6.8   0.4 0.00 0.00 66.3   2.7 46.3   1.0
Wooden Valley 5/8/26 1230 66.7   5.3 67   6 55.3   2.5 5.4   0.3 SW | 236 9.5   1.5 0.00 0.00 67.2   5.3 49.1   0.6
Max     71.3 83 57.3 6.9 - 12.1 0.00 0.01 72.4 53.7
Avg     65.9 67 54.0 3.7 - 8.4 0.00 - - -
Min     56.4 50 38.0 1.2 - 4.9 0.00 0.00 57.1 46.3